ICE55 BGBW-PAJN

Flight info

Callsign ICE55
Flight time N/A
Altitude 38000
Route OVEDA DCT AGUMI/N0465F380 DCT 67N064W 68N078W 68N092W 67N106W DCT 65N17 DCT 62N127W DCT DEEJA DCT ZEKIM DCT 582417N1345619W
Aircraft B77W/H-SDE1E2E3FGHIJ2J3J4J5M1RWXY/LB1D1

Departure

Time N/A
Airport Narsarsuaq Airport (BGBW)

Arrival

Time 2026-05-06 11:06
Airport Juneau International Airport (PAJN)
Time Latitude Longitude Altitude Speed Heading
2026-05-06 08:42 67.32206 -103.03332 38322 ft 481 kts 258°
2026-05-06 08:42 67.30553 -103.20101 38329 ft 481 kts 258°
2026-05-06 08:43 67.28882 -103.36858 38321 ft 481 kts 258°
2026-05-06 08:43 67.27195 -103.53576 38324 ft 480 kts 257°
2026-05-06 08:44 67.25490 -103.70273 38318 ft 480 kts 257°
2026-05-06 08:44 67.23767 -103.86941 38307 ft 480 kts 257°
2026-05-06 08:45 67.22030 -104.03571 38302 ft 480 kts 257°
2026-05-06 08:45 67.20276 -104.20177 38302 ft 480 kts 257°
2026-05-06 08:46 67.18507 -104.36733 38293 ft 479 kts 257°
2026-05-06 08:46 67.16718 -104.53287 38295 ft 479 kts 257°
2026-05-06 08:47 67.14913 -104.69810 38272 ft 479 kts 257°
2026-05-06 08:47 67.13093 -104.86288 38295 ft 479 kts 257°
2026-05-06 08:48 67.11259 -105.02719 38287 ft 478 kts 257°
2026-05-06 08:48 67.09722 -105.16355 38279 ft 478 kts 257°
2026-05-06 08:49 67.07858 -105.32739 38276 ft 478 kts 256°
2026-05-06 08:49 67.05977 -105.49093 38276 ft 478 kts 256°
2026-05-06 08:50 67.04080 -105.65416 38258 ft 477 kts 257°
2026-05-06 08:50 67.02170 -105.81690 38257 ft 477 kts 256°
2026-05-06 08:51 67.00247 -105.97934 38256 ft 477 kts 256°
2026-05-06 08:51 66.98183 -106.14093 38251 ft 478 kts 254°
2026-05-06 08:52 66.95957 -106.30120 38252 ft 478 kts 253°
2026-05-06 08:52 66.93718 -106.46104 38231 ft 478 kts 254°
2026-05-06 08:53 66.91494 -106.62043 38235 ft 477 kts 254°
2026-05-06 08:53 66.89266 -106.77958 38227 ft 477 kts 253°
2026-05-06 08:54 66.87038 -106.93749 38219 ft 477 kts 253°
2026-05-06 08:54 66.84782 -107.09597 38208 ft 477 kts 253°
2026-05-06 08:55 66.82510 -107.25407 38211 ft 477 kts 253°
2026-05-06 08:55 66.80220 -107.41200 38195 ft 477 kts 253°
2026-05-06 08:56 66.77915 -107.56959 38196 ft 477 kts 253°
2026-05-06 08:56 66.75594 -107.72691 38193 ft 477 kts 253°
2026-05-06 08:57 66.73255 -107.88404 38196 ft 477 kts 252°
2026-05-06 08:57 66.70903 -108.04080 38168 ft 477 kts 252°
2026-05-06 08:58 66.68538 -108.19700 38182 ft 476 kts 252°
2026-05-06 08:58 66.66159 -108.35286 38215 ft 478 kts 252°
2026-05-06 08:58 66.64953 -108.43142 38443 ft 481 kts 252°
2026-05-06 08:59 66.63742 -108.50998 38872 ft 480 kts 251°
2026-05-06 08:59 66.62547 -108.58710 39203 ft 478 kts 251°
2026-05-06 08:59 66.61332 -108.66514 39497 ft 478 kts 251°
2026-05-06 08:59 66.60115 -108.74307 39729 ft 479 kts 251°
2026-05-06 09:00 66.58892 -108.82105 39981 ft 479 kts 251°
2026-05-06 09:00 66.57647 -108.90012 40094 ft 482 kts 251°
2026-05-06 09:00 66.56409 -108.97843 40122 ft 483 kts 251°
2026-05-06 09:01 66.53938 -109.13362 40162 ft 480 kts 251°
2026-05-06 09:01 66.51456 -109.28821 40168 ft 476 kts 250°
2026-05-06 09:02 66.48974 -109.44166 40163 ft 474 kts 250°
2026-05-06 09:02 66.46485 -109.59432 40166 ft 474 kts 250°
2026-05-06 09:03 66.43979 -109.74680 40154 ft 474 kts 250°
2026-05-06 09:03 66.41456 -109.89908 40159 ft 474 kts 250°
2026-05-06 09:04 66.38919 -110.05106 40165 ft 475 kts 250°
2026-05-06 09:04 66.36363 -110.20294 40165 ft 476 kts 250°
2026-05-06 09:05 66.33788 -110.35474 40169 ft 476 kts 250°
2026-05-06 09:05 66.31193 -110.50658 40155 ft 477 kts 249°
2026-05-06 09:06 66.28585 -110.65793 40159 ft 476 kts 249°
2026-05-06 09:06 66.25964 -110.80892 40162 ft 476 kts 249°
2026-05-06 09:07 66.23331 -110.95941 40154 ft 475 kts 249°
2026-05-06 09:07 66.20687 -111.10938 40168 ft 475 kts 249°
2026-05-06 09:08 66.18030 -111.25901 40133 ft 475 kts 249°
2026-05-06 09:08 66.15362 -111.40811 40152 ft 474 kts 249°
2026-05-06 09:09 66.12685 -111.55658 40151 ft 473 kts 248°
2026-05-06 09:09 66.09996 -111.70466 40145 ft 473 kts 248°
2026-05-06 09:10 66.07292 -111.85244 40145 ft 473 kts 248°
2026-05-06 09:10 66.04596 -111.99875 40126 ft 473 kts 248°
2026-05-06 09:11 66.01869 -112.14561 40119 ft 472 kts 248°
2026-05-06 09:11 65.99131 -112.29201 40114 ft 471 kts 248°
2026-05-06 09:12 65.96384 -112.43789 40114 ft 471 kts 248°
2026-05-06 09:12 65.93626 -112.58328 40102 ft 470 kts 248°
2026-05-06 09:13 65.90852 -112.72844 40104 ft 470 kts 247°
2026-05-06 09:13 65.88067 -112.87316 40084 ft 470 kts 247°
2026-05-06 09:14 65.85275 -113.01728 40089 ft 469 kts 247°
2026-05-06 09:14 65.82472 -113.16089 40075 ft 469 kts 247°
2026-05-06 09:15 65.79657 -113.30416 40076 ft 468 kts 246°
2026-05-06 09:15 65.76831 -113.44702 40068 ft 468 kts 246°
2026-05-06 09:16 65.73992 -113.58950 40059 ft 468 kts 246°
2026-05-06 09:16 65.71165 -113.73042 40054 ft 466 kts 246°
2026-05-06 09:17 65.68314 -113.87159 40051 ft 466 kts 246°
2026-05-06 09:17 65.65452 -114.01233 40040 ft 465 kts 246°
2026-05-06 09:18 65.62580 -114.15263 40049 ft 464 kts 246°
2026-05-06 09:18 65.59699 -114.29244 40052 ft 464 kts 246°
2026-05-06 09:19 65.56806 -114.43185 40038 ft 463 kts 245°
2026-05-06 09:19 65.53915 -114.57030 40047 ft 462 kts 245°
2026-05-06 09:20 65.51013 -114.70840 40031 ft 461 kts 245°
2026-05-06 09:20 65.48102 -114.84598 40030 ft 461 kts 245°
2026-05-06 09:21 65.45182 -114.98307 40014 ft 460 kts 245°
2026-05-06 09:21 65.42250 -115.11986 40020 ft 460 kts 245°
2026-05-06 09:22 65.39307 -115.25628 40012 ft 460 kts 244°
2026-05-06 09:22 65.36348 -115.39260 40013 ft 461 kts 244°
2026-05-06 09:23 65.33376 -115.52861 40008 ft 461 kts 244°
2026-05-06 09:23 65.30392 -115.66431 40008 ft 461 kts 244°
2026-05-06 09:24 65.27391 -115.79994 40007 ft 461 kts 244°
2026-05-06 09:24 65.24408 -115.93386 39982 ft 460 kts 244°
2026-05-06 09:25 65.21373 -116.06932 39977 ft 459 kts 243°
2026-05-06 09:25 65.18354 -116.20319 39991 ft 458 kts 243°
2026-05-06 09:26 65.15347 -116.33571 39962 ft 458 kts 243°
2026-05-06 09:26 65.12311 -116.46871 39954 ft 458 kts 243°
2026-05-06 09:27 65.09269 -116.60118 39967 ft 457 kts 243°
2026-05-06 09:27 65.06217 -116.73325 39951 ft 456 kts 243°
2026-05-06 09:28 65.03154 -116.86506 39947 ft 456 kts 243°
2026-05-06 09:28 65.00083 -116.99644 39934 ft 456 kts 242°
2026-05-06 09:29 64.96974 -117.12724 39936 ft 457 kts 242°
2026-05-06 09:29 64.93832 -117.25769 39924 ft 456 kts 241°
2026-05-06 09:30 64.90687 -117.38775 39916 ft 456 kts 241°
2026-05-06 09:30 64.87540 -117.51733 39904 ft 455 kts 241°
2026-05-06 09:31 64.84389 -117.64639 39915 ft 455 kts 241°
2026-05-06 09:31 64.81226 -117.77511 39902 ft 455 kts 241°
2026-05-06 09:32 64.78075 -117.90261 39897 ft 455 kts 240°
2026-05-06 09:32 64.74871 -118.03152 39887 ft 455 kts 240°
2026-05-06 09:33 64.71699 -118.15843 39887 ft 455 kts 240°
2026-05-06 09:33 64.68490 -118.28604 39869 ft 455 kts 240°
2026-05-06 09:34 64.65248 -118.41422 39872 ft 455 kts 240°
2026-05-06 09:34 64.62037 -118.54047 39872 ft 455 kts 240°
2026-05-06 09:35 64.58799 -118.66705 39849 ft 453 kts 239°
2026-05-06 09:35 64.56119 -118.77125 39853 ft 449 kts 240°
2026-05-06 09:36 64.52912 -118.89528 39854 ft 447 kts 239°
2026-05-06 09:36 64.49699 -119.01891 39844 ft 448 kts 239°
2026-05-06 09:37 64.46467 -119.14263 39839 ft 449 kts 239°
2026-05-06 09:37 64.43208 -119.26656 39843 ft 453 kts 239°
2026-05-06 09:38 64.39904 -119.39151 39824 ft 457 kts 239°
2026-05-06 09:38 64.36573 -119.51683 39819 ft 457 kts 239°
2026-05-06 09:39 64.33242 -119.64141 39803 ft 453 kts 239°
2026-05-06 09:39 64.29939 -119.76431 39797 ft 449 kts 239°
2026-05-06 09:40 64.26642 -119.88629 39779 ft 448 kts 239°
2026-05-06 09:40 64.21672 -120.06892 39798 ft 454 kts 239°
2026-05-06 09:41 64.18292 -120.19230 39781 ft 459 kts 238°
2026-05-06 09:41 64.14891 -120.31573 39768 ft 457 kts 238°
2026-05-06 09:42 64.11504 -120.43791 39751 ft 452 kts 238°
2026-05-06 09:42 64.08139 -120.55869 39760 ft 449 kts 238°
2026-05-06 09:43 64.04800 -120.67795 39747 ft 448 kts 238°
2026-05-06 09:43 64.01413 -120.79826 39768 ft 453 kts 238°
2026-05-06 09:44 63.97975 -120.91974 39754 ft 459 kts 238°
2026-05-06 09:44 63.94513 -121.04136 39736 ft 456 kts 238°
2026-05-06 09:45 63.91073 -121.16156 39737 ft 451 kts 237°
2026-05-06 09:45 63.87645 -121.28073 39727 ft 450 kts 237°
2026-05-06 09:46 63.84218 -121.39924 39734 ft 450 kts 237°
2026-05-06 09:46 63.80775 -121.51767 39723 ft 451 kts 237°
2026-05-06 09:47 63.77305 -121.63640 39722 ft 453 kts 237°
2026-05-06 09:47 63.73812 -121.75529 39710 ft 455 kts 237°
2026-05-06 09:48 63.70296 -121.87432 39708 ft 457 kts 237°
2026-05-06 09:48 63.66758 -121.99349 39699 ft 458 kts 237°
2026-05-06 09:49 63.63205 -122.11251 39699 ft 458 kts 236°
2026-05-06 09:49 63.59639 -122.23134 39697 ft 458 kts 236°
2026-05-06 09:50 63.56108 -122.34844 39688 ft 453 kts 236°
2026-05-06 09:50 63.52580 -122.46473 39684 ft 449 kts 236°
2026-05-06 09:51 63.49076 -122.57971 39685 ft 445 kts 236°
2026-05-06 09:51 63.45578 -122.69393 39690 ft 445 kts 236°
2026-05-06 09:52 63.42070 -122.80788 39691 ft 446 kts 236°
2026-05-06 09:52 63.38540 -122.92197 39694 ft 448 kts 236°
2026-05-06 09:53 63.34980 -123.03646 39699 ft 450 kts 236°
2026-05-06 09:53 63.31397 -123.15111 39693 ft 451 kts 236°
2026-05-06 09:54 63.27801 -123.26559 39698 ft 452 kts 236°
2026-05-06 09:54 63.24189 -123.37999 39670 ft 452 kts 235°
2026-05-06 09:55 63.20568 -123.49410 39666 ft 452 kts 235°
2026-05-06 09:55 63.16943 -123.60776 39671 ft 451 kts 235°
2026-05-06 09:56 63.13325 -123.72066 39668 ft 449 kts 235°
2026-05-06 09:56 63.09707 -123.83298 39663 ft 448 kts 235°
2026-05-06 09:57 63.06094 -123.94458 39663 ft 446 kts 235°
2026-05-06 09:57 63.02482 -124.05563 39659 ft 445 kts 235°
2026-05-06 09:58 62.98870 -124.16616 39661 ft 445 kts 235°
2026-05-06 09:58 62.95250 -124.27636 39666 ft 445 kts 234°
2026-05-06 09:59 62.91620 -124.38634 39663 ft 444 kts 234°
2026-05-06 09:59 62.87985 -124.49595 39666 ft 444 kts 234°
2026-05-06 10:00 62.84339 -124.60536 39679 ft 444 kts 234°
2026-05-06 10:00 62.80684 -124.71451 39681 ft 445 kts 234°
2026-05-06 10:01 62.77039 -124.82281 39681 ft 445 kts 234°
2026-05-06 10:01 62.73360 -124.93163 39677 ft 446 kts 234°
2026-05-06 10:02 62.69671 -125.04027 39686 ft 446 kts 234°
2026-05-06 10:02 62.65969 -125.14878 39685 ft 447 kts 234°
2026-05-06 10:03 62.62253 -125.25712 39696 ft 447 kts 234°
2026-05-06 10:03 62.58522 -125.36537 39691 ft 447 kts 234°
2026-05-06 10:04 62.54791 -125.47315 39692 ft 446 kts 234°
2026-05-06 10:04 62.51061 -125.58040 39700 ft 445 kts 234°
2026-05-06 10:05 62.47331 -125.68710 39700 ft 444 kts 233°
2026-05-06 10:05 62.43596 -125.79348 39697 ft 444 kts 233°
2026-05-06 10:06 62.39861 -125.89942 39701 ft 443 kts 233°
2026-05-06 10:06 62.36122 -126.00499 39695 ft 442 kts 233°
2026-05-06 10:07 62.32383 -126.11003 39703 ft 442 kts 233°
2026-05-06 10:07 62.28633 -126.21472 39706 ft 442 kts 233°
2026-05-06 10:08 62.24880 -126.31911 39709 ft 441 kts 233°
2026-05-06 10:08 62.21148 -126.42257 39720 ft 441 kts 233°
2026-05-06 10:09 62.17377 -126.52656 39702 ft 443 kts 232°
2026-05-06 10:09 62.13577 -126.63099 39731 ft 446 kts 232°
2026-05-06 10:10 62.09751 -126.73559 39739 ft 448 kts 232°
2026-05-06 10:10 62.05895 -126.84045 39741 ft 450 kts 232°
2026-05-06 10:11 62.02020 -126.94547 39726 ft 451 kts 232°
2026-05-06 10:11 61.98258 -127.05217 39752 ft 451 kts 236°
2026-05-06 10:12 61.94695 -127.16184 39744 ft 451 kts 236°
2026-05-06 10:12 61.91140 -127.27119 39762 ft 449 kts 236°
2026-05-06 10:13 61.87599 -127.37921 39764 ft 448 kts 235°
2026-05-06 10:13 61.84033 -127.48726 39780 ft 447 kts 235°
2026-05-06 10:14 61.80467 -127.59482 39786 ft 445 kts 235°
2026-05-06 10:14 61.76899 -127.70185 39806 ft 445 kts 235°
2026-05-06 10:15 61.73323 -127.80867 39793 ft 446 kts 235°
2026-05-06 10:15 61.69733 -127.91542 39794 ft 446 kts 235°
2026-05-06 10:16 61.66134 -128.02194 39795 ft 447 kts 235°
2026-05-06 10:16 61.62521 -128.12833 39824 ft 447 kts 234°
2026-05-06 10:17 61.58900 -128.23449 39821 ft 447 kts 234°
2026-05-06 10:17 61.55275 -128.34028 39829 ft 447 kts 234°
2026-05-06 10:18 61.51641 -128.44584 39836 ft 446 kts 234°
2026-05-06 10:18 61.48005 -128.55100 39830 ft 446 kts 234°
2026-05-06 10:19 61.44360 -128.65599 39842 ft 446 kts 234°
2026-05-06 10:19 61.40735 -128.75983 39850 ft 445 kts 234°
2026-05-06 10:20 61.37080 -128.86413 39858 ft 445 kts 234°
2026-05-06 10:20 61.33418 -128.96806 39855 ft 445 kts 234°
2026-05-06 10:21 61.29753 -129.07170 39874 ft 444 kts 234°
2026-05-06 10:21 61.26079 -129.17511 39869 ft 444 kts 234°
2026-05-06 10:22 61.22403 -129.27813 39885 ft 444 kts 233°
2026-05-06 10:22 61.18715 -129.38099 39892 ft 444 kts 233°
2026-05-06 10:23 61.15620 -129.46700 39893 ft 445 kts 233°
2026-05-06 10:23 61.11939 -129.56886 39899 ft 445 kts 233°
2026-05-06 10:24 61.08220 -129.67130 39899 ft 445 kts 233°
2026-05-06 10:24 61.04492 -129.77352 39892 ft 446 kts 233°
2026-05-06 10:25 61.00747 -129.87579 39910 ft 448 kts 233°
2026-05-06 10:25 60.96975 -129.97832 39907 ft 449 kts 233°
2026-05-06 10:26 60.93193 -130.08066 39911 ft 450 kts 233°
2026-05-06 10:26 60.89393 -130.18306 39904 ft 451 kts 233°
2026-05-06 10:27 60.85581 -130.28530 39927 ft 451 kts 233°
2026-05-06 10:27 60.81762 -130.38729 39912 ft 450 kts 233°
2026-05-06 10:28 60.77947 -130.48873 39919 ft 449 kts 233°
2026-05-06 10:28 60.74134 -130.58967 39923 ft 448 kts 232°
2026-05-06 10:29 60.70323 -130.69011 39938 ft 447 kts 232°
2026-05-06 10:29 60.66514 -130.79008 39938 ft 446 kts 232°
2026-05-06 10:30 60.62731 -130.88893 39952 ft 445 kts 232°
2026-05-06 10:30 60.58927 -130.98792 39957 ft 443 kts 232°
2026-05-06 10:31 60.55123 -131.08649 39969 ft 443 kts 232°
2026-05-06 10:31 60.51315 -131.18472 39964 ft 442 kts 232°
2026-05-06 10:32 60.47501 -131.28270 39975 ft 442 kts 232°
2026-05-06 10:32 60.43678 -131.38049 39980 ft 443 kts 232°
2026-05-06 10:33 60.39842 -131.47821 39996 ft 444 kts 232°
2026-05-06 10:33 60.35990 -131.57592 39991 ft 445 kts 232°
2026-05-06 10:34 60.32126 -131.67352 40002 ft 445 kts 232°
2026-05-06 10:34 60.28249 -131.77104 40010 ft 445 kts 231°
2026-05-06 10:35 60.24366 -131.86829 40018 ft 446 kts 231°
2026-05-06 10:35 60.20470 -131.96548 40019 ft 446 kts 231°
2026-05-06 10:36 60.16567 -132.06241 40028 ft 446 kts 231°
2026-05-06 10:36 60.12659 -132.15907 40033 ft 446 kts 231°
2026-05-06 10:37 60.08748 -132.25541 40026 ft 445 kts 231°
2026-05-06 10:37 60.04829 -132.35154 40038 ft 446 kts 231°
2026-05-06 10:38 60.00894 -132.44765 40047 ft 447 kts 231°
2026-05-06 10:38 59.96949 -132.54363 40046 ft 447 kts 231°
2026-05-06 10:39 59.93014 -132.63896 40042 ft 448 kts 231°
2026-05-06 10:39 59.89040 -132.73482 40038 ft 449 kts 231°
2026-05-06 10:40 59.85056 -132.83054 40041 ft 449 kts 231°
2026-05-06 10:40 59.81073 -132.92585 40037 ft 449 kts 231°
2026-05-06 10:41 59.79073 -132.97355 39901 ft 451 kts 231°
2026-05-06 10:41 59.77053 -133.02166 39446 ft 454 kts 231°
2026-05-06 10:41 59.75037 -133.06953 38959 ft 450 kts 231°
2026-05-06 10:41 59.73037 -133.11695 38389 ft 447 kts 231°
2026-05-06 10:42 59.71046 -133.16401 37806 ft 442 kts 231°
2026-05-06 10:42 59.69086 -133.21029 37280 ft 437 kts 231°
2026-05-06 10:42 59.67141 -133.25612 36759 ft 432 kts 231°
2026-05-06 10:42 59.65215 -133.30141 36259 ft 427 kts 231°
2026-05-06 10:43 59.63310 -133.34612 35767 ft 423 kts 231°
2026-05-06 10:43 59.61422 -133.39033 35263 ft 419 kts 231°
2026-05-06 10:43 59.59551 -133.43408 34755 ft 415 kts 231°
2026-05-06 10:44 59.55858 -133.52020 33712 ft 407 kts 231°
2026-05-06 10:44 59.54035 -133.56258 33136 ft 403 kts 230°
2026-05-06 10:44 59.52232 -133.60443 32617 ft 398 kts 230°
2026-05-06 10:44 59.50447 -133.64578 32120 ft 394 kts 230°
2026-05-06 10:45 59.48707 -133.68602 31796 ft 386 kts 230°
2026-05-06 10:45 59.46974 -133.72599 31686 ft 372 kts 230°
2026-05-06 10:45 59.45347 -133.76349 31558 ft 360 kts 230°
2026-05-06 10:45 59.43742 -133.80041 31352 ft 351 kts 230°
2026-05-06 10:46 59.42172 -133.83649 30998 ft 346 kts 230°
2026-05-06 10:46 59.40608 -133.87238 30540 ft 346 kts 230°
2026-05-06 10:46 59.39046 -133.90817 30076 ft 345 kts 230°
2026-05-06 10:46 59.37491 -133.94373 29765 ft 338 kts 230°
2026-05-06 10:47 59.35965 -133.97839 29422 ft 336 kts 229°
2026-05-06 10:47 59.34278 -134.01039 28947 ft 339 kts 222°
2026-05-06 10:47 59.32403 -134.03859 28565 ft 340 kts 218°
2026-05-06 10:47 59.30487 -134.06547 28265 ft 337 kts 218°
2026-05-06 10:48 59.28591 -134.09200 27908 ft 335 kts 219°
2026-05-06 10:48 59.26667 -134.11895 26988 ft 346 kts 218°
2026-05-06 10:48 59.24675 -134.14684 25871 ft 360 kts 219°
2026-05-06 10:48 59.22597 -134.17597 24753 ft 374 kts 219°
2026-05-06 10:49 59.20469 -134.20575 24002 ft 378 kts 218°
2026-05-06 10:49 59.18326 -134.23569 23245 ft 380 kts 219°
2026-05-06 10:49 59.16177 -134.26566 22499 ft 379 kts 219°
2026-05-06 10:49 59.14041 -134.29537 21874 ft 375 kts 219°
2026-05-06 10:50 59.11935 -134.32460 21344 ft 365 kts 219°
2026-05-06 10:50 59.09911 -134.35271 20424 ft 353 kts 219°
2026-05-06 10:50 59.07920 -134.38036 19287 ft 350 kts 219°
2026-05-06 10:50 59.05944 -134.40778 18103 ft 348 kts 219°
2026-05-06 10:51 59.03952 -134.43544 16968 ft 356 kts 219°
2026-05-06 10:51 59.01919 -134.46361 16301 ft 356 kts 219°
2026-05-06 10:51 58.99948 -134.49076 16206 ft 340 kts 219°
2026-05-06 10:51 58.98055 -134.51669 15983 ft 330 kts 219°
2026-05-06 10:52 58.96196 -134.54225 15533 ft 326 kts 219°
2026-05-06 10:52 58.94362 -134.56757 15126 ft 321 kts 219°
2026-05-06 10:52 58.92553 -134.59245 14688 ft 318 kts 219°
2026-05-06 10:52 58.90761 -134.61702 14287 ft 314 kts 219°
2026-05-06 10:53 58.89005 -134.64125 13909 ft 307 kts 219°
2026-05-06 10:53 58.87268 -134.66506 13494 ft 304 kts 219°
2026-05-06 10:53 58.85545 -134.68846 13061 ft 301 kts 219°
2026-05-06 10:53 58.83863 -134.71137 12655 ft 298 kts 219°
2026-05-06 10:54 58.82190 -134.73428 12294 ft 292 kts 218°
2026-05-06 10:54 58.80516 -134.75683 11919 ft 288 kts 218°
2026-05-06 10:54 58.78909 -134.77868 11567 ft 285 kts 218°
2026-05-06 10:54 58.77295 -134.80067 11174 ft 283 kts 218°
2026-05-06 10:55 58.75694 -134.82244 10833 ft 280 kts 218°
2026-05-06 10:55 58.74103 -134.84401 10484 ft 279 kts 218°
2026-05-06 10:55 58.72520 -134.86553 10155 ft 278 kts 218°
2026-05-06 10:55 58.70970 -134.88645 10035 ft 268 kts 218°
2026-05-06 10:56 58.69455 -134.90690 9726 ft 265 kts 218°
2026-05-06 10:56 58.67950 -134.92730 9382 ft 264 kts 218°
2026-05-06 10:56 58.66454 -134.94746 9061 ft 261 kts 217°
2026-05-06 10:56 58.64972 -134.96741 8750 ft 259 kts 217°
2026-05-06 10:57 58.63503 -134.98715 8418 ft 257 kts 217°
2026-05-06 10:57 58.62042 -135.00675 8093 ft 254 kts 217°
2026-05-06 10:57 58.60600 -135.02607 7786 ft 252 kts 217°
2026-05-06 10:57 58.59126 -135.04327 7453 ft 247 kts 201°
2026-05-06 10:58 58.57417 -135.04758 7225 ft 253 kts 180°
2026-05-06 10:58 58.55654 -135.04449 6971 ft 256 kts 177°
2026-05-06 10:58 58.53877 -135.04122 6688 ft 257 kts 177°
2026-05-06 10:58 58.52095 -135.03795 6381 ft 256 kts 177°
2026-05-06 10:59 58.50333 -135.03474 6084 ft 253 kts 178°
2026-05-06 10:59 58.48591 -135.03158 5805 ft 250 kts 178°
2026-05-06 10:59 58.46867 -135.02849 5527 ft 248 kts 178°
2026-05-06 10:59 58.45166 -135.02546 5253 ft 241 kts 177°
2026-05-06 11:00 58.43534 -135.02256 5017 ft 232 kts 177°
2026-05-06 11:00 58.41949 -135.01978 4820 ft 225 kts 178°
2026-05-06 11:00 58.40399 -135.01706 4539 ft 222 kts 177°
2026-05-06 11:00 58.38870 -135.01439 4297 ft 219 kts 177°
2026-05-06 11:01 58.37391 -135.01032 4043 ft 212 kts 163°
2026-05-06 11:01 58.36237 -134.99373 3842 ft 210 kts 127°
2026-05-06 11:01 58.35708 -134.96848 3639 ft 204 kts 102°
2026-05-06 11:01 58.35647 -134.94229 3428 ft 198 kts 92°
2026-05-06 11:02 58.35668 -134.91614 3195 ft 192 kts 92°
2026-05-06 11:02 58.35688 -134.89111 3001 ft 192 kts 92°
2026-05-06 11:02 58.35704 -134.86570 2798 ft 192 kts 92°
2026-05-06 11:02 58.35721 -134.84052 2571 ft 189 kts 92°
2026-05-06 11:03 58.35735 -134.81571 2305 ft 185 kts 92°
2026-05-06 11:03 58.35746 -134.79117 2056 ft 186 kts 92°
2026-05-06 11:03 58.35756 -134.76725 1806 ft 174 kts 92°
2026-05-06 11:03 58.35764 -134.74526 1570 ft 158 kts 92°
2026-05-06 11:04 58.35769 -134.72527 1384 ft 145 kts 92°
2026-05-06 11:04 58.35778 -134.70630 1171 ft 142 kts 89°
2026-05-06 11:04 58.35961 -134.68784 965 ft 142 kts 75°
2026-05-06 11:04 58.36289 -134.66958 839 ft 148 kts 76°
2026-05-06 11:05 58.36477 -134.65014 757 ft 147 kts 93°
2026-05-06 11:05 58.36311 -134.63122 656 ft 144 kts 107°
2026-05-06 11:05 58.36036 -134.61290 435 ft 146 kts 112°
2026-05-06 11:05 58.35748 -134.59459 103 ft 140 kts 104°
2026-05-06 11:06 58.35514 -134.57740 42 ft 123 kts 104°
2026-05-06 11:06 58.35342 -134.56511 40 ft 69 kts 105°
2026-05-06 11:06 58.35258 -134.55918 37 ft 45 kts 105°
2026-05-06 11:06 58.35220 -134.55644 36 ft 18 kts 104°
2026-05-06 11:07 58.35189 -134.55420 36 ft 10 kts 103°
2026-05-06 11:07 58.35208 -134.55302 38 ft 10 kts 34°
2026-05-06 11:07 58.35273 -134.55323 38 ft 10 kts 315°
2026-05-06 11:07 58.35305 -134.55474 38 ft 16 kts 284°
2026-05-06 11:08 58.35341 -134.55728 38 ft 24 kts 285°
2026-05-06 11:08 58.35371 -134.55944 38 ft 28 kts 284°
2026-05-06 11:08 58.35427 -134.56337 39 ft 34 kts 285°
2026-05-06 11:08 58.35494 -134.56815 39 ft 39 kts 285°
2026-05-06 11:09 58.35543 -134.57176 39 ft 25 kts 285°
2026-05-06 11:09 58.35577 -134.57412 40 ft 30 kts 285°
2026-05-06 11:09 58.35638 -134.57838 39 ft 29 kts 285°
2026-05-06 11:09 58.35695 -134.58259 39 ft 15 kts 284°
2026-05-06 11:10 58.35715 -134.58413 39 ft 21 kts 283°
2026-05-06 11:10 58.35746 -134.58593 39 ft 0 kts 302°
2026-05-06 11:10 58.35772 -134.58629 40 ft 17 kts 336°
2026-05-06 11:10 58.35867 -134.58630 40 ft 16 kts 20°
2026-05-06 11:11 58.35881 -134.58516 38 ft 8 kts 104°
2026-05-06 11:11 58.35879 -134.58501 40 ft 0 kts 104°